Location: Crescent
(42.8242°N, 73.7329°W)
Time: 21:23:16
(UTC+00:00)

SR - Pass Details

Date: 16 February 2026
Orbit: 573 x 848 km, 66.7° (Epoch: 6 March)

Event Time Altitude Azimuth Distance (km) Brightness Sun altitude
Rises 16:31:00 0° 342° (NNW) 3,026 ? 34.3°
Reaches altitude 10° 16:34:45 10° 13° (NNE) 2,179 ? 34.5°
Maximum altitude 16:36:49 12° 38° (NE) 2,052 ? 34.5°
Drops below altitude 10° 16:38:57 10° 62° (ENE) 2,253 ? 34.6°
Sets 16:42:58 0° 91° (E) 3,245 ? 34.7°
